Location: North Nassau
(42.5792°N, 73.5432°W)
Time: 11:43:50
(UTC+00:00)

Daily predictions for brighter satellites

Satellite Brightness Start Highest point End
(mag) Time Altitude Azimuth Time Altitude Azimuth Time Altitude Azimuth
CENTAUR R/B 4.1 21:44:39 10° W 21:49:33 26° NNW 21:55:26 10° NNE
Cosmos 2263 Rocket 3.4 21:45:48 10° N 21:49:55 20° NE 21:54:02 10° E
SL-16 R/B 2.7 21:44:30 10° NNE 21:50:46 87° WNW 21:56:56 10° SSW
NOSS 2-3 (C) 4.4 21:52:04 10° S 21:54:56 23° ESE 21:57:47 10° ENE
EXPRESS MD2 4.3 21:53:34 10° S 21:55:13 17° SE 21:57:14 10° E
Cosmos 2151 3.0 21:52:49 10° N 21:56:55 53° E 22:00:59 10° SSE
SAR-Lupe-4 4.4 21:56:15 10° SE 21:59:20 29° ENE 22:02:27 10° N
IGS 5A 3.3 21:55:25 10° SSE 21:59:21 85° ENE 22:03:20 10° N
IRS-1C 4.4 21:56:40 10° SE 22:01:41 44° ENE 22:06:42 10° N
Cosmos 1486 Rocket 4.4 21:57:10 10° SSW 22:02:20 66° WNW 22:07:34 10° NNE
Cosmos 1782 3.4 22:00:21 10° SSW 22:03:50 51° W 22:07:21 10° N
IRIDIUM 103 4.4 22:00:12 10° N 22:05:23 61° E 22:10:32 10° SSE
Cosmos 773 Rocket 4.4 22:00:27 10° NNW 22:05:39 70° WSW 22:10:51 10° S
Cosmos 2227 Rocket 2.6 22:01:50 10° NNW 22:07:11 42° ENE 22:12:30 10° SE
USA 238 DEB 4.0 22:04:49 10° S 22:10:18 38° ESE 22:16:08 10° NE
USA 238 4.1 22:04:56 10° S 22:10:25 38° ESE 22:16:14 10° NE
Cosmos 990 Rocket 4.0 22:07:46 10° S 22:12:46 59° ESE 22:17:50 10° NNE
MOS 1 Rocket 3.8 22:08:18 10° SE 22:12:53 41° ENE 22:17:43 10° N
Cosmos 2084 Rocket 3.3 22:09:42 10° NNW 22:13:54 68° NE 22:18:04 10° SE
Aureole 1 Rocket 4.2 22:13:00 10° SSE 22:16:38 27° E 22:20:55 10° NE
Cosmos 1697 Rocket 2.7 22:12:08 10° SSW 22:17:43 79° ESE 22:23:22 10° NNE
Cosmos 1867 3.6 22:12:56 10° NNW 22:18:22 63° NE 22:23:44 10° SE
Cosmos 1825 Rocket 3.7 22:14:28 10° N 22:18:39 47° ENE 22:22:47 10° SSE
Cosmos 2098 Rocket 4.0 22:16:41 10° SSW 22:20:39 49° WNW 22:25:22 10° N
NOSS 2-3 (E) 3.1 22:17:21 10° SSW 22:21:01 65° ESE 22:24:06 14° NE
Cosmos 1900 4.3 22:16:21 10° NNW 22:21:24 72° ENE 22:26:19 10° SE
NOSS 2-3 (D) 3.2 22:17:51 10° SSW 22:21:33 60° ESE 22:24:33 15° NE
IRIDIUM 106 4.3 22:18:29 10° N 22:23:44 89° E 22:28:57 10° S
ARIANE 5 R/B 2.4 22:18:47 10° SSE 22:23:48 69° ENE 22:28:54 10° N
Cosmos 1655 Rocket 4.1 22:23:36 10° N 22:29:39 50° ENE 22:35:39 10° SSE
UNK 4.1 22:26:09 10° N 22:30:42 67° WNW 22:35:12 10° SSW
SJ-6F 4.4 22:31:34 10° SSE 22:35:27 56° ENE 22:39:24 10° N
Cosmos 1076 Rocket 3.7 22:31:26 10° N 22:35:36 45° ENE 22:39:44 10° SSE
ATLAS CENTAUR R/B 4.0 22:34:40 10° WNW 22:36:50 17° WSW 22:38:57 10° SSW
SMAP 3.5 22:32:52 10° S 22:37:28 65° WSW 22:42:07 10° NNW
SAR-Lupe-3 3.9 22:36:47 32° NE 22:37:32 45° ESE 22:39:56 10° S
COSMOS 2455 4.2 22:34:39 10° SE 22:38:23 17° ESE 22:39:11 17° E
Cosmos 2058 Rocket 3.7 22:35:18 10° SSE 22:39:20 35° E 22:42:19 16° NNE
COSMO-SKYMED 1 3.4 22:38:13 22° ENE 22:39:40 27° E 22:43:11 10° SSE
SPOT 1/Viking Rocket 3.7 22:36:35 10° SE 22:41:34 48° ENE 22:46:33 10° N
Landsat 7 3.9 22:37:33 10° S 22:42:12 76° WSW 22:46:52 10° NNW
Gbstr 26 Del rocket 3.3 22:39:39 10° WSW 22:43:39 48° NNW 22:45:42 23° NE
Cosmos 1606 Rocket 4.1 22:45:34 10° SSW 22:49:55 61° W 22:54:19 10° N
IRS-P3 4.0 22:45:45 10° SSE 22:51:04 84° ENE 22:56:24 10° NNW
Cosmos 2082 4.4 22:49:25 10° N 22:54:31 32° NE 22:56:34 25° E
CZ-2D R/B 4.0 22:54:10 10° S 22:57:09 42° W 23:00:10 10° NNW
Cosmos 2297 Rocket 4.0 22:54:35 10° NW 22:59:35 33° WSW 23:04:34 10° SSW
NOSS 3-2 (C) 4.5 22:55:59 10° WSW 23:00:35 33° NW 23:05:30 12° NNE
Resurs 1-3 3.7 22:57:59 10° SE 23:02:05 46° ENE 23:06:13 10° N
Cosmos 1538 Rocket 4.0 22:57:02 10° NNW 23:02:18 64° ENE 23:07:35 10° SSE
SL-16 R/B 4.0 23:00:24 10° SE 23:01:52 14° SE 23:01:52 14° SE
CZ-4C R/B 3.6 22:57:10 10° NW 23:04:28 64° WSW 23:13:14 10° SSE
Meteor 1-26 Rocket 4.1 23:03:28 10° S 23:08:47 61° E 23:12:48 18° NNE
Okean 1 3.2 23:10:06 10° S 23:13:12 54° SE 23:13:12 54° SE
Nadezhda 2 Rocket 4.4 23:12:05 10° N 23:18:07 58° E 23:24:06 10° SSE
Cosmos 2219 3.2 23:14:45 10° NNW 23:20:27 61° ENE 23:24:18 21° SE
Cosmos 1980 Rocket 2.4 23:15:40 10° SSW 23:21:18 72° WNW 23:25:04 22° NNE
Cosmos 1553 Rocket 3.9 23:16:55 10° S 23:22:58 67° E 23:29:05 10° NNE
Spot 4 Rocket 3.9 23:18:26 10° SSE 23:23:31 83° ENE 23:28:39 10° NNW
Cosmos-2242 2.9 23:19:39 10° S 23:23:54 82° W 23:25:43 34° N
YAOGAN 1 2.4 23:20:55 10° SSE 23:25:10 87° ENE 23:29:27 10° NNW
Cosmos 1844 Rocket 4.4 23:22:10 10° N 23:23:59 17° NNE 23:23:59 17° NNE
Cosmos 1898 Rocket 3.4 23:23:30 10° SSW 23:28:39 85° WNW 23:30:53 35° NNE
SKYMED 2 4.3 23:27:41 16° N 23:31:01 51° WNW 23:35:13 10° SSW
OceanSat 1 rocket 4.4 23:26:18 10° SSE 23:31:02 74° ENE 23:35:44 10° N
Cosmos 2263 Rocket 2.4 23:28:45 10° NNW 23:34:25 72° WSW 23:40:03 10° SSE
SL-24 R/B - RUBIN 2 4.1 23:29:15 10° SSW 23:34:30 54° SE 23:34:30 54° SE
Cosmos 2369 3.6 23:29:01 10° SSW 23:34:44 83° ESE 23:36:34 46° NNE
Helios 1A Rocket 4.4 23:46:13 24° SSW 23:46:13 24° SSW 23:47:41 10° SSW
Cosmos 1937 Rocket 3.4 23:41:54 10° SSW 23:47:05 80° WNW 23:47:53 63° N
Meteor 1-17 Rocket 4.5 23:41:57 10° N 23:47:32 79° E 23:53:02 10° SSE
Cosmos 858 Rocket 4.5 23:44:17 10° SSW 23:48:48 66° SSE 23:48:48 66° SSE
Cosmos 2227 Rocket 4.1 23:46:12 10° NW 23:51:00 29° WSW 23:55:47 10° SSW
